This is the latest recevied weather packets stored in our database for station/object K5SVV. If no packets are shown the sender has not sent any weather packets the latest 10 day(s).
| Time | Temp. | Humidity | Pressure | Rain* | Wind** | Luminosity | Snow |
|---|---|---|---|---|---|---|---|
| 1778118196 | 14.44° C | 90% | 1014.2 hPa | 0 mm | - | 0 W/m² | - |
| 1778117893 | 14.44° C | 90% | 1014.2 hPa | 0 mm | - | 0 W/m² | - |
| 1778117590 | 14.44° C | 90% | 1014 hPa | 0 mm | - | 0 W/m² | - |
| 1778117288 | 14.44° C | 91% | 1013.7 hPa | 0 mm | - | 0 W/m² | - |
| 1778116983 | 14.44° C | 91% | 1013.8 hPa | 0 mm | - | 0 W/m² | - |
| 1778116681 | 14.44° C | 91% | 1013.5 hPa | 0 mm | - | 0 W/m² | - |
| 1778116377 | 14.44° C | 91% | 1013.3 hPa | 0 mm | - | 1 W/m² | - |
| 1778116076 | 14.44° C | 91% | 1013.3 hPa | 0 mm | - | 2 W/m² | - |
| 1778115773 | 15° C | 91% | 1013.5 hPa | 0 mm | - | 5 W/m² | - |
| 1778115470 | 15° C | 91% | 1013.1 hPa | 0 mm | - | 6 W/m² | - |
| 1778115167 | 15° C | 90% | 1013.2 hPa | 0 mm | - | 9 W/m² | - |
| 1778114863 | 15° C | 89% | 1013.2 hPa | 0 mm | - | 11 W/m² | - |
| 1778114561 | 15° C | 88% | 1013.3 hPa | 0 mm | - | 15 W/m² | - |
| 1778114257 | 15° C | 87% | 1013.4 hPa | 0 mm | - | 9 W/m² | - |
| 1778113952 | 15° C | 87% | 1013.6 hPa | 0 mm | - | 6 W/m² | - |
| 1778113649 | 15° C | 87% | 1013.3 hPa | 0 mm | - | 7 W/m² | - |
| 1778113345 | 15° C | 86% | 1013.4 hPa | 0 mm | - | 10 W/m² | - |
| 1778113042 | 15.56° C | 85% | 1013.4 hPa | 0 mm | - | 9 W/m² | - |
| 1778112739 | 15.56° C | 82% | 1012.9 hPa | 0 mm | - | 11 W/m² | - |
| 1778112435 | 15.56° C | 81% | 1013.1 hPa | 0 mm | - | 19 W/m² | - |
| 1778112131 | 15.56° C | 81% | 1013.1 hPa | 0 mm | - | 11 W/m² | - |
| 1778111828 | 15.56° C | 81% | 1012.7 hPa | 0 mm | - | 23 W/m² | - |
| 1778111523 | 15.56° C | 81% | 1012.6 hPa | 0 mm | - | 37 W/m² | - |
| 1778111221 | 15.56° C | 81% | 1012.8 hPa | 0 mm | - | 32 W/m² | - |
| 1778110918 | 15.56° C | 81% | 1012.7 hPa | 0 mm | - | 42 W/m² | - |
* Rain latest hour (hover to see other rain measurements)
** Current wind speed in m/s (hover to see current wind gust speed)